Wind_Speed
45 46 48 50 51 54 57 60 62 64 63 60 56 53 52 50 48 47 46 45 44 43 43 43 43 43 43 43 43 43 43 42 42 43 43 42 42 42 42 42 42 42 42 42 42 42 42 41 42 44 44 44 47 48 48 47 47 44 40 38 35 33 35 35 32 30 29 28 28 28 27 28 35 39 39 36 34 33 35 42 44 43 43 42 41
42 43 45 46 46 48 51 52 54 54 53 50 47 45 45 44 43 44 44 42 40 39 39 40 40 39 39 39 39 38 38 38 38 38 37 37 37 37 37 36 36 36 36 36 37 37 38 38 40 42 43 44 46 47 47 48 47 43 39 37 34 33 35 34 34 33 34 34 30 28 29 30 33 39 41 39 36 34 35 40 44 45 44 43 43
37 38 40 40 40 43 44 45 45 44 43 42 41 41 41 41 41 42 42 39 38 38 38 40 40 39 36 36 36 34 34 34 34 33 33 33 33 33 33 33 32 32 33 33 33 34 34 36 38 40 42 43 45 45 46 49 48 43 38 37 36 35 36 36 35 34 35 38 34 29 30 33 35 38 41 41 39 37 37 40 44 45 44 42 44
36 38 39 38 38 41 41 41 41 39 39 39 38 37 39 40 41 41 41 39 38 37 37 39 39 37 34 33 33 32 31 31 30 30 30 30 31 31 31 30 30 30 30 31 31 32 32 34 35 37 39 42 44 45 47 49 49 45 41 39 38 37 38 38 37 34 32 34 34 32 32 36 38 38 39 39 40 40 40 42 44 44 43 42 43
36 39 39 38 39 40 41 42 40 39 40 39 37 37 39 42 44 43 42 41 39 37 37 37 36 34 31 30 30 30 29 28 28 28 28 28 29 29 30 29 29 29 29 29 29 30 31 32 33 35 37 40 42 44 47 49 48 47 44 41 40 38 37 38 37 35 33 32 33 33 34 38 41 41 40 39 38 39 41 42 44 44 43 43 43
36 38 40 40 41 41 42 42 39 39 41 38 37 38 41 44 46 44 43 42 40 38 36 35 35 33 30 28 29 29 28 27 27 27 27 28 29 29 29 29 28 28 28 28 28 29 30 31 32 34 35 38 41 43 46 47 47 47 46 43 41 39 37 36 36 36 35 35 35 34 34 38 43 44 42 41 39 38 40 43 45 45 44 44 44
38 38 41 42 42 42 42 41 39 40 39 35 35 37 42 48 49 47 45 43 41 40 38 36 35 33 30 28 27 27 28 27 27 27 27 28 29 29 29 29 28 27 27 27 28 28 29 30 31 32 34 36 39 41 44 46 46 48 48 46 44 43 40 38 38 39 37 37 38 38 35 36 41 44 43 41 41 40 40 42 45 45 45 45 45
42 40 41 43 44 43 42 41 40 40 34 29 30 37 46 52 52 51 49 45 44 43 40 37 36 35 33 30 28 27 27 27 27 27 27 28 29 29 29 28 27 26 26 26 27 27 28 29 30 31 32 34 36 39 41 43 44 47 50 49 48 46 45 42 41 42 40 39 41 42 39 36 37 43 44 43 41 41 42 43 44 45 45 44 44
44 40 39 41 43 45 44 42 42 38 31 25 26 35 48 54 55 55 52 49 47 45 43 40 38 37 35 33 30 28 27 27 27 27 27 28 29 29 28 27 27 26 25 25 26 26 27 28 29 31 32 32 34 36 38 40 42 45 49 52 51 50 49 46 44 44 43 40 41 43 41 37 36 39 44 45 42 42 43 44 45 46 45 45 44
42 40 39 38 40 43 44 42 41 39 34 28 28 36 47 55 58 57 54 52 51 48 46 43 41 39 38 36 34 31 29 27 27 27 27 28 28 29 28 28 27 27 27 27 28 28 28 29 29 30 31 32 33 34 35 37 39 42 46 50 52 52 52 50 46 45 44 42 42 44 43 39 38 38 42 45 45 44 45 45 46 47 46 46 45
41 40 39 37 38 40 40 40 40 38 36 33 34 40 44 49 54 55 54 54 53 51 48 45 44 42 40 39 38 35 32 30 29 28 28 28 29 28 28 28 28 28 29 29 30 30 31 31 32 32 33 33 33 33 34 35 37 39 43 47 50 52 52 52 49 47 46 43 42 45 45 42 40 41 42 44 46 46 46 46 46 46 46 45 45
43 41 40 39 39 38 37 39 39 36 35 34 36 40 40 43 52 55 56 57 55 52 50 48 46 44 42 42 41 39 36 34 32 30 29 29 30 30 29 29 29 30 31 31 31 31 31 32 32 33 35 35 36 36 36 35 35 36 39 43 46 49 51 52 51 50 49 46 44 46 47 44 43 43 45 46 46 47 47 47 47 47 45 45 45
45 45 44 43 42 40 39 40 40 36 34 34 32 33 35 41 51 55 56 57 55 53 51 49 48 47 45 44 43 43 41 38 36 34 33 31 31 32 32 32 32 32 33 33 33 33 32 32 32 33 34 36 38 39 39 39 38 37 38 40 42 46 48 50 51 51 51 50 47 47 48 48 47 45 45 48 48 47 48 48 48 48 47 46 46
48 48 47 46 45 44 43 42 41 38 37 35 31 26 25 34 47 53 53 54 54 53 51 50 50 48 47 46 45 45 44 43 40 38 37 35 34 34 34 35 35 35 35 35 35 35 35 34 34 34 35 36 37 39 41 41 41 41 40 40 41 43 46 48 50 51 52 52 50 49 50 51 52 49 46 48 51 49 49 49 49 50 49 48 48
51 49 49 49 48 47 48 46 43 40 39 38 34 25 24 34 44 49 52 54 53 53 51 50 50 49 49 47 46 46 46 46 44 43 41 40 38 37 36 37 37 37 37 36 36 37 37 37 37 37 37 37 37 38 40 41 42 43 43 42 42 42 44 46 48 50 51 53 52 51 52 53 56 55 49 47 51 54 52 51 51 51 50 51 51
52 50 50 50 50 50 51 49 47 44 42 42 39 32 32 38 38 39 49 53 52 53 51 48 49 50 50 49 48 47 47 47 46 46 45 44 43 41 40 39 39 39 39 39 39 39 39 39 39 40 40 40 39 39 40 41 42 43 44 44 44 43 44 44 46 49 50 52 52 53 53 55 58 60 56 50 50 54 57 56 54 53 52 52 52
54 52 52 51 51 52 52 51 50 48 46 45 43 40 38 40 36 31 41 52 55 55 52 49 50 50 50 50 49 48 48 48 47 47 47 46 46 46 45 44 43 42 42 42 42 42 42 42 41 42 42 42 41 41 40 41 41 42 44 45 45 45 45 45 46 48 50 51 51 52 53 55 59 62 62 57 51 51 56 60 59 58 57 55 55
56 55 53 53 54 54 54 54 52 51 50 48 46 45 43 43 40 34 39 50 53 53 54 52 49 49 49 49 49 50 50 50 49 49 49 49 48 48 48 47 47 47 46 45 45 45 45 44 44 44 44 44 44 44 43 42 42 42 43 44 46 46 46 46 47 48 50 51 51 52 52 55 58 62 65 64 58 52 52 57 61 61 60 60 59
57 56 56 56 56 56 57 57 55 54 54 52 50 50 47 46 45 43 49 53 46 44 51 52 48 48 49 48 48 49 50 50 51 51 51 51 50 50 49 49 49 50 49 49 49 48 48 48 47 47 46 46 46 46 46 46 44 43 43 43 45 47 48 48 48 48 49 50 51 52 53 54 57 61 65 66 65 60 54 54 58 62 62 61 61
57 57 58 57 57 58 58 58 58 56 56 55 54 54 52 50 48 47 52 56 54 53 57 57 53 51 50 50 49 50 51 51 51 52 52 52 52 51 52 51 51 51 51 51 51 51 51 51 50 50 49 49 48 49 49 49 49 47 46 44 44 46 48 49 50 50 50 51 51 51 53 55 56 59 63 66 67 66 61 57 56 59 61 62 61
58 58 58 58 58 58 59 59 58 58 57 56 56 55 55 54 52 51 53 57 60 63 65 66 64 58 54 53 53 53 52 50 50 50 49 51 52 53 54 54 53 54 54 54 54 54 54 53 53 53 52 52 52 52 51 52 52 51 50 49 47 46 47 48 50 51 52 52 52 52 53 54 56 58 61 64 66 67 66 63 59 58 59 62 63
58 58 58 59 59 58 58 58 58 58 57 57 56 56 55 55 53 52 53 55 57 59 63 67 68 63 58 53 52 53 53 52 52 50 48 50 52 52 52 53 54 55 57 58 58 57 57 56 56 55 55 55 55 54 54 54 53 53 53 53 52 51 49 49 49 51 52 53 54 54 54 54 56 58 60 62 64 66 67 67 65 63 61 61 63
59 59 58 58 58 58 58 57 57 57 57 57 56 55 55 55 54 54 55 58 60 62 64 66 67 65 60 55 55 57 58 58 57 55 52 52 51 51 51 52 53 55 56 59 60 60 60 59 59 59 59 58 58 58 57 56 56 56 56 56 56 56 55 53 52 52 52 53 54 55 56 56 56 58 60 61 63 65 67 68 68 68 66 64 62
59 59 58 57 57 56 57 56 56 56 55 55 55 54 54 54 55 56 57 58 60 61 63 64 64 64 61 60 61 63 63 61 60 60 59 56 54 53 53 55 57 57 59 60 60 61 61 61 61 62 62 61 60 60 60 60 59 59 59 59 58 58 58 58 57 57 56 55 55 56 57 57 57 57 59 61 63 65 65 67 68 69 70 69 67
59 58 58 57 56 56 56 56 55 54 54 54 54 53 54 54 54 54 55 56 57 58 59 60 60 60 60 60 61 62 62 60 59 59 59 58 56 51 47 50 55 56 59 62 63 63 63 64 63 63 64 63 62 62 62 63 63 62 62 61 61 60 60 60 60 60 60 59 59 58 58 58 58 58 59 60 62 65 66 67 68 69 70 71 72
58 58 57 56 55 55 56 56 55 54 53 53 53 53 53 53 54 54 54 54 55 56 56 57 57 57 57 57 58 59 61 59 57 56 54 55 57 52 44 43 46 50 53 57 59 61 62 64 66 66 65 65 64 64 64 64 64 64 64 64 64 63 63 63 63 63 63 63 63 62 62 61 60 60 60 60 61 63 66 68 69 69 70 71 72
57 58 57 55 54 55 55 55 54 54 53 52 53 53 52 52 53 53 53 53 54 55 55 55 55 55 55 55 55 57 59 59 57 56 54 54 55 55 51 46 42 43 48 51 53 56 58 61 63 65 66 66 66 66 67 68 68 67 66 66 65 66 66 65 66 66 66 66 66 65 65 65 65 64 63 63 62 63 64 66 68 70 71 72 72
55 56 55 54 54 55 55 55 54 53 53 53 53 53 52 53 53 53 53 53 54 54 55 55 55 55 55 55 55 56 58 57 56 55 54 53 53 54 56 54 48 45 46 47 48 53 59 62 62 61 63 65 65 65 66 68 69 68 68 67 66 67 68 69 69 69 69 69 68 67 67 67 68 67 67 66 66 65 65 66 67 69 70 71 73
55 55 53 52 53 54 54 54 54 53 53 54 54 54 53 52 53 53 53 53 54 54 55 55 56 56 56 56 56 56 57 57 57 55 53 52 53 53 54 58 60 57 54 48 43 46 54 59 59 58 58 59 62 64 66 68 69 69 69 69 68 68 69 70 71 72 72 72 71 70 70 70 70 70 70 70 70 69 69 69 69 69 70 70 71
57 56 53 51 52 54 54 54 53 54 55 56 56 55 54 54 54 54 54 54 55 56 56 56 56 57 58 58 59 58 58 58 58 56 54 54 54 54 55 58 62 63 60 52 47 48 53 56 58 59 60 61 62 64 66 69 72 72 71 70 70 70 70 71 72 73 73 73 74 73 73 73 74 74 73 73 73 72 72 73 73 73 72 72 72
58 57 54 51 52 53 54 54 56 56 56 57 58 58 57 57 57 57 56 56 56 57 57 58 58 59 60 61 61 60 60 60 59 57 57 57 56 57 58 60 62 63 62 59 58 60 62 64 65 65 65 66 66 65 65 68 71 73 73 72 72 72 72 72 73 74 74 75 75 76 76 77 78 78 77 76 76 76 76 76 76 76 76 75 75
59 59 56 53 53 53 53 56 59 58 57 58 60 60 60 61 61 60 60 60 60 60 60 60 61 62 64 64 64 63 62 62 62 61 60 60 60 60 60 62 64 66 68 69 70 72 72 71 69 67 66 66 67 66 66 68 70 72 73 73 73 73 73 72 72 74 76 76 76 76 77 78 80 81 80 79 79 79 79 79 79 79 79 79 78
60 62 60 57 55 51 52 59 62 59 59 60 61 61 61 63 64 64 63 64 64 64 63 63 64 64 66 67 66 66 66 66 66 65 64 65 64 64 64 65 66 68 70 72 74 76 75 73 71 68 66 65 66 66 67 69 70 71 71 72 72 72 72 72 72 73 75 76 77 78 78 79 81 83 83 83 82 82 83 83 83 83 83 82 82
62 65 64 61 58 52 54 62 64 60 60 62 62 62 62 64 66 67 67 67 67 66 66 66 66 67 68 69 69 68 69 69 69 68 68 68 68 68 69 69 69 70 71 72 74 75 75 74 71 69 67 67 68 68 69 70 71 71 72 72 72 73 72 72 73 73 73 75 76 76 78 79 82 84 85 85 85 85 86 85 85 85 85 86 85
67 68 66 64 62 58 58 62 64 62 63 65 64 64 66 68 68 69 70 70 69 69 68 68 68 68 69 70 70 71 71 71 71 71 71 71 71 71 72 72 73 73 74 74 74 75 75 74 72 70 69 71 72 72 72 72 72 73 74 75 75 75 75 76 77 77 77 77 77 77 78 79 80 82 83 85 86 87 88 88 87 87 87 88 88
72 70 69 67 65 63 61 61 63 65 67 68 68 68 69 71 71 71 73 73 72 72 71 70 70 71 71 70 71 72 72 72 72 72 72 72 72 72 73 74 75 76 76 75 75 75 75 74 73 71 72 74 75 76 75 74 73 74 75 77 77 77 78 79 80 80 80 81 82 82 82 82 81 81 82 83 85 86 88 89 89 89 90 91 91
75 74 73 72 70 68 65 63 65 68 71 73 73 71 71 72 73 74 74 75 74 74 73 72 72 73 73 72 72 73 73 73 73 73 73 73 73 73 74 74 75 76 76 76 75 74 74 73 71 71 73 76 77 78 77 76 75 76 77 78 79 79 79 80 80 80 80 81 83 84 84 84 84 84 84 85 85 86 87 87 88 90 91 93 94
77 77 77 77 75 73 71 68 68 71 76 78 76 74 73 74 75 76 75 75 76 75 75 74 74 75 74 74 73 73 74 74 74 74 74 74 75 75 75 75 75 76 76 75 74 74 72 70 69 70 74 76 78 78 77 77 77 78 78 79 80 81 81 81 80 81 81 82 83 84 85 85 86 87 87 87 87 87 88 88 88 88 90 91 93
79 80 81 81 80 77 75 74 73 75 80 81 78 76 75 76 77 77 76 76 76 76 76 75 75 76 76 75 74 74 75 75 75 75 75 75 76 77 77 77 77 76 76 75 74 73 71 69 69 71 73 75 77 77 77 78 78 78 79 79 80 81 81 81 82 83 83 84 85 85 85 85 86 88 89 90 89 89 89 89 89 88 88 90 91
82 83 84 85 83 81 79 77 77 79 81 82 80 78 77 77 77 77 77 76 76 76 76 76 77 77 77 76 75 75 76 76 76 76 77 77 78 78 79 79 78 78 77 75 74 73 72 70 70 71 72 74 76 77 78 78 79 78 78 79 80 80 81 81 82 83 84 85 85 86 86 86 87 88 90 91 91 90 90 90 90 90 90 90 91
84 86 87 87 86 85 82 80 80 80 81 82 82 81 80 79 77 76 76 76 76 76 76 76 77 77 78 78 77 76 76 76 77 78 79 79 80 80 80 80 79 79 78 77 76 75 73 72 71 70 71 73 75 76 77 78 79 79 79 79 79 80 81 81 82 82 83 84 85 86 86 87 88 89 90 91 92 92 91 90 90 91 91 92 92
85 87 89 89 89 88 85 83 82 81 81 81 82 81 80 78 76 75 75 75 74 75 75 75 76 76 77 77 77 76 76 77 78 79 80 80 81 81 81 81 80 79 79 79 77 75 73 72 72 72 73 74 74 74 75 77 78 79 79 78 79 80 80 81 81 81 82 84 85 85 85 87 88 89 90 91 92 92 92 91 91 91 92 92 93
87 88 89 90 90 89 87 85 83 81 81 81 80 79 78 77 75 74 73 72 72 72 72 72 73 73 74 74 75 75 75 75 77 79 80 80 81 81 81 80 79 78 78 78 77 74 72 71 72 73 74 74 73 73 74 75 76 77 78 78 78 79 79 80 80 81 81 82 83 84 85 85 86 87 87 88 90 90 91 91 91 91 91 92 92
89 89 89 90 90 89 87 85 82 79 79 78 78 77 75 74 73 73 72 71 70 69 69 69 69 69 70 71 71 71 71 72 74 76 77 77 78 78 78 77 75 74 75 75 73 72 70 70 70 71 72 73 72 71 72 72 73 74 76 76 77 78 78 78 78 79 80 80 81 82 82 83 83 82 83 84 86 87 88 89 90 91 90 90 90
89 88 88 88 87 86 84 82 80 77 76 75 75 74 72 71 71 70 70 68 67 66 65 65 65 66 67 67 68 69 69 69 70 73 73 73 73 73 72 72 71 71 71 70 69 68 68 66 66 67 68 69 69 68 68 68 69 71 72 73 74 75 75 75 75 76 76 77 77 78 78 78 77 77 77 79 81 83 84 85 87 87 88 88 87
85 84 84 84 83 81 80 78 76 75 73 72 72 71 69 68 67 66 66 65 64 62 62 61 63 64 65 66 67 67 67 67 68 69 69 69 68 67 67 67 68 68 67 66 65 66 65 63 63 63 64 65 65 64 64 65 66 67 68 69 70 70 71 71 71 72 72 72 72 72 72 71 71 70 72 73 76 77 78 79 79 80 81 81 81
81 80 79 78 77 75 75 73 72 71 70 69 69 68 66 64 63 63 63 62 61 60 60 60 61 63 64 65 66 66 66 66 65 65 65 63 62 62 62 64 65 65 63 62 62 63 63 61 60 60 61 62 62 62 62 63 63 64 64 65 67 67 68 68 69 69 68 67 67 66 66 66 66 66 67 69 70 70 70 70 71 71 72 73 74
78 76 74 72 71 70 69 69 68 68 67 67 66 66 64 62 62 61 61 60 59 59 60 60 61 62 63 64 64 64 64 63 62 60 59 58 59 60 60 61 62 62 61 60 60 61 61 60 58 58 59 60 60 60 60 60 60 61 62 63 64 64 65 65 65 64 64 63 62 62 62 62 63 63 64 63 63 63 63 62 63 63 64 65 66
74 72 70 68 67 66 65 65 65 65 65 64 64 63 61 60 60 60 60 59 58 58 59 59 59 60 61 62 61 61 61 60 58 56 54 55 58 59 58 58 59 59 58 58 58 59 59 58 57 56 57 57 57 57 57 58 58 59 59 60 61 61 61 61 61 60 59 59 59 59 59 59 60 60 59 58 57 56 56 56 56 58 59 60 61
70 69 68 66 65 64 63 62 62 62 62 61 61 60 59 59 59 59 58 57 56 56 57 58 58 58 58 59 59 59 58 57 54 53 53 54 56 56 55 55 55 54 54 55 56 57 56 56 55 54 54 54 54 55 55 55 56 57 57 58 58 58 58 57 57 57 56 56 56 56 55 55 56 56 55 53 52 52 52 52 53 54 55 56 57
68 67 65 63 63 62 61 60 59 59 59 59 58 58 58 57 57 57 57 56 54 53 53 55 57 57 56 55 56 56 54 52 51 51 52 53 53 53 52 52 51 50 50 52 53 53 52 52 52 51 50 51 52 52 52 53 54 54 55 56 56 56 55 54 54 54 54 54 53 52 51 51 51 51 50 49 49 49 49 50 52 53 54 54 54
Wind_Direction
234 236 242 243 242 244 246 248 251 253 256 258 261 265 268 270 270 272 275 277 277 276 275 274 271 271 273 273 272 270 269 267 265 263 263 262 261 260 259 258 258 256 254 253 251 250 248 245 243 241 241 239 237 237 239 241 241 241 238 237 240 234 226 226 229 230 232 235 237 238 241 236 228 226 231 237 239 234 227 223 222 221 222 221 220
241 238 241 246 246 246 248 249 251 254 257 258 260 265 267 269 272 276 279 278 278 278 278 277 275 275 276 274 272 271 268 266 264 262 261 260 259 258 257 255 255 254 252 250 248 247 244 242 240 240 241 239 238 237 238 239 236 232 231 234 236 231 226 228 231 231 230 232 235 235 237 235 230 228 230 233 237 237 231 225 223 223 225 224 221
248 245 244 247 249 250 250 250 254 257 260 262 263 264 265 268 274 279 279 279 278 279 279 278 278 279 277 274 273 271 268 266 264 262 259 257 256 255 254 253 251 250 249 248 246 245 242 240 239 238 238 238 237 235 233 234 232 226 225 230 232 228 226 229 233 234 231 231 234 235 233 228 226 228 231 232 234 235 232 226 223 223 224 223 220
247 249 248 249 251 253 254 255 258 258 261 266 267 264 264 270 277 278 279 279 279 279 279 278 278 279 277 275 274 273 269 266 263 260 257 255 254 253 252 250 248 246 246 245 244 243 241 239 237 235 235 235 234 233 231 231 229 225 223 227 230 228 228 231 234 236 233 231 233 235 233 225 222 227 229 230 231 232 231 227 223 222 223 223 223
246 250 251 251 251 252 255 257 258 259 265 270 271 267 265 272 278 277 277 279 279 279 278 277 277 278 279 277 275 274 271 267 264 260 257 254 253 251 250 248 246 244 243 242 240 239 239 238 236 234 233 232 233 232 231 231 228 224 223 224 227 229 232 235 234 232 232 232 232 234 233 225 222 226 228 228 230 230 231 229 225 224 223 224 225
250 254 256 255 254 254 257 258 258 263 269 273 274 269 268 275 278 276 277 277 277 277 276 277 277 277 279 277 275 275 273 270 266 262 257 254 251 249 248 247 246 244 241 240 238 236 237 237 236 235 233 231 232 232 232 232 229 225 223 222 225 228 232 234 230 225 226 230 231 231 233 228 224 228 232 231 231 229 229 229 228 227 227 227 228
258 258 259 260 260 258 258 260 261 264 269 274 275 271 271 277 278 276 276 275 274 275 274 274 275 276 277 275 274 274 273 271 267 262 257 253 251 249 248 247 246 245 243 241 239 237 236 236 237 236 234 233 233 233 234 235 232 228 224 221 222 226 228 229 227 224 224 227 229 229 232 230 225 229 234 235 234 232 229 228 228 228 229 231 231
265 261 260 263 264 262 261 261 261 263 267 271 273 273 277 280 278 277 276 272 272 272 271 271 271 273 275 273 272 271 271 270 266 262 257 253 251 249 248 247 246 246 245 245 244 242 239 237 238 237 236 235 234 235 237 238 236 233 228 224 223 225 227 228 226 224 225 227 229 230 231 231 227 228 233 236 237 236 233 230 228 227 228 231 232
268 265 261 260 261 263 263 261 261 261 259 254 255 266 275 278 277 277 275 271 271 270 269 269 268 270 272 272 271 269 268 268 265 261 256 253 250 248 246 245 245 245 245 246 246 246 244 241 239 239 238 237 236 237 239 240 240 237 234 231 229 229 230 232 229 225 226 228 230 229 229 232 231 228 230 234 237 238 235 232 230 228 228 231 232
270 269 265 260 259 259 261 261 261 259 253 240 233 251 268 275 275 275 273 271 271 270 269 268 267 268 269 270 270 267 265 264 263 261 257 252 249 248 246 244 243 243 243 244 245 247 247 245 243 242 241 241 240 240 240 242 243 241 239 238 237 236 236 238 237 232 231 231 230 229 230 233 235 232 230 231 234 237 237 235 233 231 230 231 232
269 269 268 267 263 261 261 261 259 257 253 241 229 239 259 272 274 273 273 273 273 271 270 268 267 267 267 268 268 267 264 262 260 259 257 253 249 247 246 244 243 243 244 245 245 246 247 247 246 245 245 244 244 244 244 244 245 245 243 242 242 243 242 243 243 240 238 236 231 230 231 233 236 237 236 232 232 235 237 236 234 233 231 230 231
269 269 268 267 265 264 264 263 261 258 254 247 236 236 248 263 270 272 274 274 273 271 270 269 267 265 265 265 266 265 264 261 259 257 255 253 250 246 243 243 243 244 245 246 246 247 247 247 247 246 245 245 245 246 246 247 248 247 247 246 245 245 245 245 245 244 243 241 236 232 231 231 232 235 238 237 233 232 235 236 235 234 233 231 232
270 269 268 267 266 265 263 262 264 263 260 255 246 241 246 259 269 274 276 275 273 271 269 268 266 265 264 263 263 264 264 262 260 258 256 254 251 247 244 242 242 243 244 244 244 245 246 247 248 247 246 245 244 245 246 247 249 249 249 249 248 246 246 245 245 245 244 244 241 236 233 232 231 231 235 238 237 233 233 235 236 235 235 234 233
268 269 269 269 268 267 265 263 263 264 265 263 258 251 247 255 267 275 278 278 275 271 268 266 265 265 264 262 262 262 263 263 261 259 258 256 253 250 247 244 243 243 244 244 243 242 243 245 246 247 247 245 244 243 244 245 247 248 248 248 248 247 246 245 245 245 244 244 243 239 235 234 233 231 231 236 239 237 233 234 236 236 236 235 234
268 268 269 269 269 268 267 266 264 263 262 262 261 255 242 247 260 271 277 278 276 271 267 265 264 264 264 262 261 261 262 263 262 260 259 258 256 254 251 249 246 244 244 245 245 244 242 242 243 244 245 244 244 243 243 244 245 245 246 246 247 246 246 245 245 245 245 244 244 242 238 235 234 234 233 234 238 240 238 236 237 238 237 237 236
269 269 269 269 269 268 267 267 266 263 259 257 257 250 237 236 245 264 275 275 272 268 266 266 265 264 264 263 262 261 261 261 262 261 260 259 258 256 254 253 251 249 247 246 247 247 246 245 244 244 244 244 243 243 243 244 244 244 244 244 245 245 245 245 245 245 245 245 245 244 241 237 235 237 239 237 236 239 241 240 240 241 240 240 240
271 270 269 270 269 269 268 268 267 265 262 259 257 251 243 239 237 251 269 270 267 267 266 267 266 264 264 265 264 263 262 261 261 261 260 259 259 258 256 255 254 253 251 250 249 248 248 248 248 247 246 245 244 244 244 244 245 245 245 244 243 243 243 243 244 244 244 245 245 245 244 240 237 238 241 243 239 237 239 241 241 242 243 243 243
270 270 270 269 269 268 268 268 267 267 265 263 260 256 252 248 242 239 250 260 266 268 267 265 263 263 265 265 264 263 262 261 260 260 259 259 258 258 258 257 256 255 254 253 252 251 250 249 249 249 249 248 247 246 245 244 245 245 245 245 244 243 243 242 242 242 242 243 244 245 245 243 241 239 241 245 244 240 237 238 240 242 243 244 245
269 269 269 268 268 268 268 268 268 267 266 265 264 261 257 254 249 240 239 247 254 261 264 261 261 265 266 264 264 262 261 261 260 258 258 258 258 258 259 259 258 257 256 255 254 253 252 251 250 250 249 249 249 248 247 246 245 244 244 244 244 244 244 243 242 242 241 242 243 243 244 244 243 242 242 244 247 245 240 235 236 239 241 243 244
268 268 268 267 267 267 267 268 267 267 266 265 264 263 260 257 253 244 240 244 246 252 258 259 261 266 264 261 262 261 261 261 258 257 257 258 258 258 258 259 259 259 258 257 256 255 254 253 252 251 251 250 249 249 249 248 247 246 245 244 244 245 245 245 245 244 243 242 242 242 243 243 243 243 243 245 246 248 246 240 235 235 238 240 242
268 267 267 267 267 268 268 268 268 267 266 265 264 263 262 259 256 251 248 250 251 254 257 258 262 264 262 262 262 260 261 260 257 257 258 259 259 258 258 259 259 259 259 259 258 257 256 255 255 254 252 252 251 250 250 249 248 248 247 246 245 245 246 246 246 246 245 244 243 243 243 242 243 243 244 244 245 247 248 247 242 237 235 236 238
269 268 268 269 269 268 268 268 268 268 267 266 264 263 262 260 258 254 251 251 253 255 257 259 262 263 261 262 260 258 259 259 259 260 259 259 260 259 259 260 260 261 261 261 260 259 258 257 256 256 255 253 253 252 251 251 251 250 249 248 247 246 246 246 247 247 246 246 245 244 244 243 243 243 243 244 245 245 246 247 247 245 241 238 236
270 270 269 269 269 269 268 268 268 267 267 266 265 264 262 260 258 255 253 252 254 256 257 259 261 261 259 257 256 258 260 260 262 262 260 259 259 259 261 262 262 262 262 262 262 260 259 258 257 257 256 255 254 254 253 252 251 251 250 249 248 247 247 246 246 247 247 247 247 247 246 245 244 243 243 244 245 245 245 246 247 247 247 245 242
270 270 270 269 269 269 268 268 267 267 266 266 266 265 264 262 260 258 258 257 256 256 258 259 260 261 259 256 256 259 261 262 262 262 261 260 260 261 264 265 264 264 263 262 262 262 261 260 258 258 257 256 256 255 254 253 252 251 250 250 249 249 248 247 247 247 247 247 247 247 248 248 247 245 244 244 244 245 245 246 246 246 247 248 248
269 269 269 269 268 268 268 267 267 266 266 266 266 265 265 264 263 261 260 260 258 258 258 259 259 259 260 258 258 259 260 261 261 260 261 261 260 261 265 268 267 265 264 263 261 262 262 261 260 259 258 257 256 256 255 254 253 252 251 250 250 249 249 249 248 248 248 247 247 247 248 248 248 248 247 246 245 245 245 245 246 246 246 247 248
269 268 267 267 267 267 266 266 266 266 266 266 265 265 265 265 265 265 263 263 262 261 261 261 260 259 259 258 258 258 258 256 256 258 259 259 259 257 255 260 265 266 266 265 263 262 262 262 261 260 259 258 257 257 257 256 255 254 252 251 251 250 250 250 250 249 249 248 248 248 248 248 248 249 248 248 247 247 246 245 246 246 246 247 247
267 267 267 267 266 265 265 265 265 265 264 264 264 264 264 264 264 264 264 264 264 264 263 263 263 262 260 259 258 258 258 256 255 255 255 255 257 254 248 248 256 261 263 264 264 264 264 264 262 261 261 260 259 259 259 258 256 255 253 252 251 251 251 251 251 250 250 249 249 248 249 249 249 249 249 249 249 249 248 247 246 246 246 247 247
266 267 268 268 267 267 266 266 266 265 265 264 263 263 263 263 263 263 263 263 264 264 264 263 263 263 262 261 259 258 259 259 257 255 254 251 251 251 248 245 246 249 254 258 262 262 262 261 260 261 261 260 259 260 259 259 258 256 255 253 252 252 253 252 251 251 250 250 250 250 250 250 250 250 250 250 250 250 250 249 249 248 248 247 247
265 265 267 268 269 270 269 269 269 269 268 267 266 264 263 263 263 263 263 263 263 263 263 264 264 264 263 262 261 260 259 260 258 256 254 251 248 247 246 244 244 246 249 250 251 253 256 257 257 259 260 260 259 259 260 260 260 259 257 255 254 254 254 253 253 252 252 251 251 251 250 251 251 251 250 250 250 251 251 251 251 251 250 250 249
266 266 265 266 268 270 271 271 272 271 271 270 270 269 267 266 264 264 263 263 264 264 264 264 264 264 264 263 263 262 261 260 260 259 256 253 249 246 244 243 243 245 246 242 239 242 250 256 259 260 263 264 263 263 263 263 263 262 260 259 258 257 256 255 254 254 254 253 252 251 251 251 251 251 251 251 251 251 251 252 252 252 252 252 252
267 267 265 264 266 268 270 272 271 271 271 272 272 272 271 270 268 266 265 264 264 265 265 265 265 265 265 265 264 264 264 263 263 262 259 257 254 250 247 245 244 243 243 242 241 245 252 258 261 261 263 264 264 264 265 265 264 264 263 262 261 260 259 257 256 256 256 255 253 252 252 252 252 251 251 251 251 252 252 252 252 253 253 253 253
268 268 266 265 265 267 270 271 271 271 272 272 273 273 273 272 271 270 268 267 265 264 264 264 265 265 266 266 266 266 265 265 264 263 262 260 258 255 252 250 248 246 245 246 248 252 255 257 258 258 260 262 263 263 262 263 263 264 263 263 262 261 260 259 258 257 256 255 254 253 253 253 254 253 252 251 251 252 252 252 253 253 253 253 253
270 270 268 267 266 267 270 272 271 272 273 273 273 273 274 275 274 272 271 269 267 265 264 263 263 264 264 265 266 266 266 265 265 264 263 262 261 260 257 255 253 251 250 251 252 254 255 255 255 256 256 257 260 261 260 261 262 262 263 263 262 262 261 261 259 258 257 256 255 254 254 254 254 254 253 252 251 251 251 252 252 253 254 254 254
269 269 270 270 270 269 270 271 272 272 273 274 274 275 276 275 275 274 273 271 270 268 267 266 264 264 264 264 265 265 264 265 264 264 263 263 262 262 261 260 258 257 256 255 255 256 257 257 257 257 257 256 256 256 257 258 260 261 262 262 262 261 262 262 261 259 259 259 258 256 256 255 254 254 254 253 253 252 252 252 252 253 254 254 254
269 270 271 272 272 270 269 270 273 274 274 275 276 276 276 275 275 276 275 274 273 272 270 269 267 266 265 265 265 264 264 264 263 263 263 263 262 262 262 262 261 260 259 259 259 259 260 260 260 259 259 258 257 256 255 255 257 258 260 261 261 261 261 262 262 262 261 261 261 260 259 258 256 255 255 255 254 254 253 253 253 253 254 254 255
273 274 274 274 273 271 270 271 274 276 276 276 275 275 275 276 276 276 276 275 275 274 272 271 270 268 267 266 265 265 265 264 264 264 263 263 262 262 261 261 262 261 261 260 260 260 261 262 262 261 261 260 260 258 257 256 256 257 258 259 260 261 261 261 262 262 263 263 263 263 262 261 260 259 258 257 256 255 255 254 254 254 254 254 254
275 276 276 276 275 274 273 273 275 277 277 276 275 274 275 275 275 275 274 274 274 273 273 272 271 270 269 268 266 266 266 265 265 265 264 264 263 262 261 261 260 261 261 261 261 260 261 261 262 263 262 261 260 260 259 258 258 257 257 258 258 258 259 260 261 262 262 263 263 263 263 262 261 260 260 259 258 257 256 255 255 254 254 254 254
274 276 276 277 276 276 277 277 277 277 276 275 274 274 274 274 273 273 273 273 273 272 272 271 270 269 269 268 268 268 267 266 266 266 265 265 265 264 263 263 262 261 261 261 261 261 260 261 262 262 263 262 262 261 260 260 259 258 257 257 257 257 257 258 258 259 260 260 261 261 262 262 262 262 261 260 259 259 258 257 256 255 255 255 255
274 275 276 276 276 277 277 277 277 276 275 275 275 275 274 273 273 272 272 271 271 270 270 270 269 268 268 267 267 267 267 267 267 267 266 266 266 266 265 265 265 264 264 263 262 262 261 261 260 260 261 262 263 263 261 260 259 259 258 258 258 257 257 257 256 257 257 258 258 259 260 261 261 262 262 261 260 259 259 259 258 257 256 255 255
273 274 274 275 276 276 276 276 275 275 275 276 276 276 274 273 272 271 271 270 269 269 268 268 267 267 267 266 266 266 266 267 267 267 267 267 266 266 266 266 266 266 266 266 265 265 264 262 261 260 260 260 261 262 262 261 261 260 259 259 258 258 258 257 257 256 257 257 257 258 258 259 259 260 261 261 261 260 259 259 259 258 257 256 256
272 273 274 275 275 275 275 275 275 275 275 275 276 275 273 272 271 271 270 269 268 267 267 266 266 266 265 265 265 265 265 265 266 266 266 266 266 266 267 267 267 267 268 268 267 267 266 265 264 262 261 260 260 260 261 261 261 261 260 260 260 259 259 258 258 257 257 257 257 257 257 258 258 258 259 260 261 261 261 260 259 259 258 258 257
271 272 273 274 274 275 275 274 274 274 274 273 273 273 273 272 271 270 269 268 267 266 266 265 265 265 265 265 265 264 264 264 264 265 265 265 266 266 266 267 267 268 268 268 268 268 267 267 266 265 264 263 261 261 261 261 261 261 261 261 261 261 260 260 259 259 258 258 258 257 257 257 258 258 259 260 261 261 262 262 261 260 260 259 258
270 270 271 272 273 273 274 273 273 272 272 272 272 271 271 271 270 269 268 267 266 266 265 265 265 265 265 265 264 264 264 263 263 263 264 264 265 265 266 266 267 267 268 268 268 268 267 266 266 265 265 264 263 262 262 261 261 262 262 262 261 261 261 261 261 260 260 259 259 259 258 258 258 258 259 260 261 261 262 263 263 262 261 261 260
269 269 270 270 271 272 272 272 272 272 271 271 271 270 270 269 269 268 267 267 266 265 265 265 265 265 265 264 264 264 263 262 262 262 263 263 264 265 266 267 268 268 268 268 268 267 267 266 265 265 264 264 264 263 263 262 262 262 262 262 262 262 262 262 262 262 261 261 261 260 260 260 260 260 260 261 261 262 262 262 263 263 263 262 262
268 268 268 269 270 270 271 271 271 271 270 269 269 268 268 267 267 267 266 266 265 264 264 264 264 264 264 264 263 263 262 261 261 262 262 263 264 265 266 268 268 268 267 268 268 267 266 265 264 263 263 264 263 263 263 263 263 262 262 262 262 263 263 263 263 263 263 262 262 262 262 262 263 263 263 263 262 262 262 262 262 263 263 263 263
267 267 267 267 268 268 269 269 269 269 268 268 267 266 266 265 265 265 264 264 263 263 263 263 263 263 262 262 262 262 262 261 261 261 262 263 265 266 267 267 267 266 266 267 266 266 265 264 263 262 263 263 263 263 263 263 262 262 262 263 263 263 264 264 264 263 263 263 263 264 265 266 266 266 266 265 264 263 263 263 263 263 264 264 264
267 267 266 266 266 267 267 267 267 267 266 265 265 264 264 263 262 262 262 262 261 261 260 260 260 260 260 261 261 261 261 261 261 262 263 264 265 265 265 264 265 265 265 265 265 265 265 264 263 263 262 262 262 262 262 262 262 262 263 263 264 264 264 264 264 264 264 265 266 267 268 268 268 267 266 265 265 265 265 265 265 265 265 264 264
268 267 267 266 266 265 265 265 265 265 264 263 263 263 262 262 261 261 260 260 260 259 259 258 258 259 259 260 260 261 261 262 262 262 264 264 264 263 262 262 263 264 264 264 263 264 264 264 263 262 261 261 261 262 262 262 263 263 263 263 263 263 264 264 264 265 266 267 268 268 268 268 268 267 267 267 267 268 268 268 267 267 266 266 265
267 267 267 267 266 265 264 263 262 262 262 262 262 263 262 262 262 261 260 260 259 259 259 259 258 258 259 260 260 260 261 262 262 263 263 262 262 261 261 261 261 262 262 262 262 262 262 263 262 261 261 262 262 262 262 262 262 263 263 263 263 263 264 265 266 267 267 268 268 268 269 268 268 268 269 270 270 270 270 269 269 268 267 266 265
266 266 266 266 266 265 264 263 262 262 262 262 262 263 263 262 262 261 261 260 259 259 259 260 259 258 258 259 260 260 260 261 262 262 260 259 259 260 260 260 260 260 261 261 261 261 261 262 262 262 262 262 262 262 262 262 262 262 262 263 263 264 265 266 267 268 269 269 268 268 268 269 269 270 271 272 272 272 272 272 270 269 267 265 264
265 265 265 265 265 264 264 264 263 263 262 261 261 261 261 261 261 260 260 259 258 257 257 258 260 260 259 258 259 260 260 260 260 260 259 258 258 258 259 260 260 260 259 258 259 260 260 261 261 261 261 261 261 261 261 261 261 261 262 263 263 264 266 267 268 268 269 269 270 270 270 271 271 272 273 274 275 274 273 272 270 269 267 265 264
Height
10632 10633 10630 10632 10635 10634 10634 10635 10634 10634 10635 10636 10636 10634 10633 10634 10632 10630 10630 10629 10628 10628 10627 10625 10623 10623 10623 10622 10622 10622 10622 10621 10620 10619 10619 10619 10619 10620 10621 10622 10622 10623 10624 10625 10626 10626 10628 10629 10629 10628 10629 10630 10633 10636 10637 10638 10642 10645 10647 10648 10649 10650 10652 10653 10656 10658 10659 10659 10660 10662 10664 10666 10667 10669 10671 10673 10675 10677 10680 10682 10685 10687 10688 10691 10693
10625 10629 10627 10627 10630 10630 10630 10630 10629 10630 10630 10630 10630 10628 10628 10629 10627 10625 10624 10624 10624 10623 10622 10620 10618 10619 10619 10617 10617 10617 10617 10616 10615 10615 10614 10613 10613 10614 10615 10616 10617 10617 10618 10620 10621 10621 10623 10624 10624 10624 10625 10626 10628 10631 10632 10632 10636 10640 10643 10644 10645 10646 10648 10649 10652 10654 10654 10655 10656 10658 10660 10662 10664 10665 10667 10669 10671 10674 10676 10678 10680 10682 10684 10687 10690
10619 10621 10621 10622 10624 10624 10624 10624 10624 10625 10624 10623 10624 10624 10624 10623 10622 10620 10619 10620 10620 10618 10618 10615 10613 10615 10615 10613 10612 10613 10612 10611 10611 10611 10610 10609 10609 10609 10610 10611 10612 10613 10614 10615 10616 10617 10618 10619 10620 10620 10620 10621 10623 10626 10628 10628 10631 10635 10638 10639 10640 10642 10643 10645 10647 10649 10650 10651 10652 10654 10656 10658 10659 10661 10663 10665 10667 10670 10672 10673 10676 10678 10681 10684 10686
10615 10614 10615 10618 10619 10618 10618 10619 10619 10619 10618 10618 10620 10621 10620 10618 10618 10617 10616 10616 10616 10615 10614 10611 10610 10611 10611 10610 10609 10609 10609 10607 10607 10607 10606 10606 10606 10606 10606 10607 10608 10609 10609 10610 10611 10612 10613 10615 10615 10616 10617 10618 10619 10621 10623 10624 10627 10631 10633 10635 10636 10638 10639 10641 10643 10645 10645 10647 10649 10651 10653 10654 10655 10656 10658 10661 10663 10665 10667 10669 10672 10674 10677 10680 10682
10612 10610 10611 10613 10614 10613 10613 10614 10616 10615 10614 10616 10617 10617 10616 10614 10614 10613 10613 10613 10612 10612 10612 10609 10607 10607 10608 10607 10606 10605 10605 10604 10604 10604 10603 10603 10603 10603 10603 10604 10605 10605 10606 10607 10608 10609 10609 10610 10611 10612 10613 10614 10615 10616 10618 10620 10623 10626 10628 10631 10632 10634 10635 10637 10638 10640 10641 10643 10645 10648 10649 10651 10651 10652 10654 10657 10659 10662 10664 10667 10669 10671 10673 10675 10677
10607 10606 10606 10607 10608 10610 10610 10610 10612 10611 10611 10613 10614 10614 10612 10611 10611 10611 10610 10610 10609 10609 10609 10607 10604 10604 10605 10604 10603 10603 10602 10601 10601 10601 10601 10600 10600 10600 10601 10601 10602 10602 10603 10604 10604 10605 10606 10606 10607 10608 10609 10610 10611 10612 10614 10616 10619 10621 10624 10626 10629 10630 10632 10634 10635 10637 10638 10640 10642 10644 10646 10647 10648 10649 10651 10653 10656 10659 10661 10664 10666 10668 10670 10671 10673
10600 10602 10601 10600 10601 10604 10605 10606 10608 10607 10608 10609 10610 10611 10609 10608 10607 10607 10607 10606 10605 10605 10605 10605 10602 10601 10602 10601 10601 10600 10599 10599 10598 10598 10598 10598 10597 10597 10598 10598 10598 10599 10600 10600 10601 10602 10603 10604 10604 10605 10606 10607 10608 10609 10611 10612 10615 10617 10619 10622 10624 10626 10628 10630 10632 10633 10635 10637 10639 10640 10642 10643 10645 10646 10647 10650 10652 10655 10658 10660 10662 10665 10667 10668 10669
10591 10595 10596 10596 10595 10596 10599 10602 10602 10603 10605 10606 10607 10609 10606 10604 10604 10602 10602 10602 10601 10601 10601 10602 10600 10598 10598 10599 10598 10598 10597 10596 10596 10595 10595 10595 10595 10595 10595 10595 10596 10597 10597 10598 10599 10599 10601 10601 10602 10603 10603 10605 10606 10607 10608 10609 10611 10613 10615 10618 10620 10622 10623 10626 10628 10630 10631 10633 10635 10636 10638 10639 10641 10642 10644 10646 10648 10651 10654 10656 10658 10660 10662 10664 10666
10581 10585 10589 10591 10590 10590 10592 10595 10596 10599 10602 10602 10606 10610 10606 10600 10600 10598 10597 10597 10596 10596 10597 10597 10597 10596 10595 10595 10596 10595 10595 10594 10593 10593 10592 10592 10592 10592 10593 10593 10594 10594 10595 10596 10596 10597 10598 10599 10600 10601 10601 10602 10603 10604 10605 10606 10608 10610 10611 10613 10615 10617 10618 10620 10623 10625 10627 10629 10631 10633 10634 10636 10637 10638 10640 10642 10645 10647 10649 10651 10653 10656 10658 10660 10663
10574 10576 10580 10584 10585 10584 10586 10589 10591 10594 10597 10599 10604 10609 10605 10597 10595 10595 10593 10592 10592 10592 10592 10593 10593 10593 10592 10592 10592 10593 10592 10592 10591 10590 10589 10589 10589 10590 10590 10591 10592 10592 10593 10594 10594 10595 10596 10597 10598 10599 10600 10600 10601 10602 10603 10603 10604 10606 10607 10609 10610 10612 10614 10615 10618 10621 10623 10624 10627 10629 10630 10632 10633 10634 10635 10638 10640 10642 10644 10646 10649 10651 10654 10656 10659
10569 10571 10574 10577 10578 10578 10580 10583 10586 10588 10593 10596 10598 10600 10598 10593 10592 10592 10591 10589 10588 10588 10588 10589 10589 10589 10589 10588 10588 10588 10589 10589 10588 10587 10587 10586 10586 10587 10588 10589 10589 10590 10591 10592 10592 10593 10593 10594 10595 10596 10597 10598 10599 10599 10600 10601 10601 10602 10603 10605 10606 10608 10609 10611 10613 10616 10618 10620 10622 10624 10626 10628 10629 10630 10631 10634 10636 10638 10640 10642 10645 10647 10650 10652 10654
10564 10567 10568 10570 10571 10573 10574 10576 10579 10583 10588 10592 10595 10596 10595 10593 10591 10591 10588 10585 10584 10584 10584 10584 10584 10584 10585 10584 10583 10583 10584 10585 10584 10584 10584 10584 10584 10584 10584 10585 10586 10587 10587 10588 10589 10589 10590 10591 10592 10593 10594 10594 10595 10596 10597 10597 10598 10599 10600 10601 10602 10604 10605 10607 10609 10611 10613 10615 10618 10620 10622 10624 10625 10625 10627 10629 10631 10633 10635 10638 10640 10642 10645 10648 10649
10559 10561 10562 10564 10566 10568 10570 10570 10572 10577 10581 10586 10592 10596 10597 10596 10592 10589 10586 10581 10580 10580 10579 10578 10578 10579 10579 10579 10578 10578 10579 10579 10580 10580 10580 10581 10581 10581 10581 10582 10582 10583 10583 10584 10585 10585 10586 10587 10588 10589 10590 10590 10591 10592 10593 10594 10594 10596 10596 10597 10599 10600 10601 10603 10604 10607 10609 10611 10613 10615 10617 10619 10620 10621 10623 10624 10627 10629 10631 10633 10635 10638 10640 10643 10644
10553 10555 10556 10558 10560 10561 10564 10566 10568 10572 10575 10579 10586 10593 10598 10597 10591 10585 10581 10577 10575 10574 10574 10573 10572 10572 10573 10573 10573 10573 10573 10573 10574 10575 10576 10576 10577 10577 10578 10578 10579 10580 10580 10581 10581 10582 10582 10583 10584 10585 10585 10586 10587 10587 10588 10589 10590 10591 10592 10593 10594 10595 10597 10598 10600 10602 10604 10606 10608 10610 10612 10614 10616 10617 10619 10620 10622 10624 10627 10629 10630 10633 10635 10638 10639
10546 10549 10550 10551 10553 10554 10555 10558 10563 10568 10570 10572 10578 10588 10593 10591 10585 10580 10574 10571 10570 10568 10567 10567 10566 10566 10566 10567 10567 10567 10567 10567 10568 10569 10570 10571 10572 10573 10574 10574 10575 10576 10576 10577 10577 10578 10578 10579 10579 10580 10581 10581 10582 10583 10583 10584 10585 10586 10587 10588 10589 10591 10592 10593 10595 10597 10599 10601 10603 10605 10607 10609 10611 10612 10615 10616 10618 10619 10622 10624 10626 10628 10630 10632 10634
10539 10543 10544 10544 10546 10546 10547 10549 10554 10560 10563 10565 10570 10577 10580 10578 10577 10575 10567 10563 10564 10562 10560 10561 10560 10559 10559 10560 10561 10561 10561 10561 10562 10563 10564 10565 10567 10568 10569 10569 10570 10571 10572 10572 10573 10573 10574 10574 10575 10575 10576 10577 10578 10578 10579 10579 10580 10581 10582 10583 10584 10586 10587 10589 10590 10592 10594 10596 10598 10600 10602 10604 10605 10607 10609 10612 10614 10615 10617 10619 10621 10623 10625 10627 10629
10533 10535 10537 10538 10538 10538 10539 10541 10544 10548 10553 10557 10560 10565 10569 10568 10570 10571 10563 10557 10556 10554 10553 10554 10553 10553 10553 10554 10555 10555 10555 10555 10556 10557 10558 10559 10560 10561 10562 10563 10564 10565 10566 10567 10568 10568 10569 10570 10571 10571 10572 10573 10574 10575 10575 10576 10576 10577 10577 10578 10579 10580 10582 10583 10585 10587 10589 10591 10592 10594 10596 10598 10600 10601 10603 10606 10609 10611 10612 10614 10617 10618 10621 10623 10624
10526 10528 10529 10530 10530 10530 10530 10532 10535 10538 10541 10546 10550 10554 10558 10560 10563 10565 10559 10553 10550 10546 10545 10546 10546 10546 10547 10548 10549 10549 10549 10549 10550 10551 10551 10552 10553 10554 10556 10557 10558 10559 10560 10561 10562 10563 10564 10564 10565 10566 10567 10568 10569 10570 10571 10572 10572 10573 10573 10574 10575 10576 10577 10578 10580 10581 10583 10585 10587 10589 10591 10592 10594 10596 10597 10599 10602 10605 10607 10609 10611 10613 10616 10617 10619
10519 10520 10521 10522 10522 10522 10523 10524 10527 10530 10532 10536 10539 10542 10547 10550 10553 10554 10551 10549 10545 10539 10536 10537 10538 10540 10541 10542 10542 10542 10543 10544 10544 10544 10544 10545 10547 10549 10550 10550 10551 10552 10553 10555 10556 10557 10557 10559 10560 10561 10562 10564 10565 10566 10566 10567 10567 10568 10569 10570 10571 10571 10572 10573 10575 10576 10578 10579 10581 10583 10585 10587 10588 10590 10592 10593 10595 10598 10601 10603 10605 10607 10610 10611 10613
10510 10512 10512 10514 10515 10515 10515 10517 10519 10521 10523 10526 10528 10531 10535 10539 10541 10543 10543 10542 10539 10534 10530 10528 10530 10533 10534 10534 10535 10536 10536 10537 10537 10537 10538 10540 10542 10542 10543 10544 10545 10546 10547 10549 10550 10551 10551 10553 10554 10556 10557 10558 10559 10559 10560 10561 10562 10563 10564 10566 10567 10567 10568 10569 10570 10571 10572 10574 10575 10577 10578 10580 10582 10584 10585 10587 10588 10590 10593 10597 10599 10601 10603 10605 10607
10503 10503 10504 10505 10507 10508 10508 10509 10510 10512 10515 10517 10519 10522 10524 10527 10530 10533 10533 10532 10530 10528 10524 10521 10522 10526 10527 10528 10529 10529 10530 10531 10530 10532 10535 10535 10535 10536 10537 10539 10540 10540 10541 10542 10543 10544 10545 10546 10548 10549 10551 10552 10553 10553 10554 10555 10556 10558 10559 10560 10562 10563 10563 10564 10565 10566 10567 10568 10569 10570 10572 10573 10575 10577 10578 10580 10582 10583 10585 10588 10592 10594 10596 10598 10599
10495 10496 10497 10497 10499 10500 10501 10501 10501 10503 10505 10507 10510 10513 10514 10516 10519 10521 10522 10521 10519 10518 10516 10514 10515 10518 10521 10522 10522 10521 10523 10523 10523 10527 10530 10529 10529 10530 10532 10533 10534 10534 10534 10535 10535 10536 10538 10540 10541 10542 10543 10544 10546 10547 10548 10550 10551 10552 10553 10555 10555 10556 10557 10558 10558 10559 10560 10561 10563 10564 10565 10567 10568 10570 10572 10573 10575 10577 10578 10580 10583 10586 10588 10590 10592
10487 10488 10489 10490 10490 10492 10493 10494 10494 10494 10496 10497 10500 10503 10505 10506 10508 10510 10511 10512 10511 10508 10507 10506 10507 10509 10513 10515 10514 10513 10514 10515 10517 10520 10522 10522 10523 10525 10527 10528 10527 10527 10527 10526 10527 10528 10529 10532 10533 10534 10535 10537 10538 10540 10541 10543 10544 10545 10546 10547 10548 10549 10550 10551 10552 10552 10553 10555 10556 10557 10558 10560 10561 10563 10564 10566 10568 10569 10571 10573 10575 10577 10579 10581 10583
10479 10479 10481 10482 10483 10483 10484 10485 10486 10487 10488 10489 10490 10493 10495 10496 10498 10499 10501 10502 10502 10501 10499 10498 10498 10499 10503 10505 10506 10505 10506 10507 10509 10511 10514 10516 10518 10520 10521 10520 10519 10518 10518 10517 10517 10518 10520 10523 10524 10525 10526 10529 10531 10532 10533 10534 10535 10536 10537 10539 10541 10542 10543 10544 10545 10546 10546 10547 10549 10550 10551 10553 10555 10556 10558 10559 10560 10561 10563 10565 10567 10569 10571 10572 10574
10471 10471 10473 10474 10475 10476 10476 10477 10478 10479 10480 10481 10482 10484 10485 10486 10488 10490 10491 10492 10492 10493 10492 10491 10491 10492 10494 10495 10497 10497 10497 10498 10500 10503 10507 10508 10510 10512 10512 10509 10507 10507 10506 10506 10507 10508 10510 10512 10514 10515 10517 10520 10522 10524 10524 10525 10526 10527 10529 10531 10533 10535 10536 10537 10538 10539 10540 10540 10541 10543 10544 10546 10548 10549 10551 10552 10553 10554 10556 10557 10559 10561 10563 10564 10565
10462 10462 10464 10466 10467 10467 10467 10469 10470 10472 10473 10474 10474 10476 10477 10478 10479 10480 10482 10482 10482 10483 10484 10484 10484 10485 10486 10487 10488 10489 10489 10490 10493 10496 10500 10500 10500 10502 10502 10497 10496 10496 10494 10494 10497 10499 10501 10502 10504 10505 10508 10510 10513 10514 10515 10517 10518 10519 10521 10524 10526 10527 10529 10530 10530 10531 10532 10532 10534 10535 10536 10538 10540 10542 10544 10545 10546 10547 10549 10550 10551 10552 10553 10555 10557
10455 10454 10456 10459 10459 10459 10459 10461 10463 10465 10467 10467 10467 10468 10469 10470 10471 10471 10473 10473 10473 10474 10475 10475 10476 10477 10478 10480 10481 10481 10480 10483 10486 10489 10492 10493 10492 10493 10493 10489 10487 10486 10486 10487 10489 10491 10491 10492 10493 10495 10497 10500 10503 10505 10507 10507 10509 10511 10514 10516 10518 10519 10520 10521 10521 10522 10523 10523 10525 10527 10529 10530 10532 10533 10536 10537 10538 10540 10541 10542 10543 10544 10545 10547 10548
10449 10447 10449 10450 10449 10450 10451 10453 10455 10457 10459 10459 10460 10461 10462 10463 10463 10464 10465 10465 10465 10466 10466 10467 10468 10468 10470 10472 10473 10474 10473 10475 10478 10481 10484 10486 10485 10485 10485 10483 10480 10478 10479 10481 10481 10481 10480 10482 10484 10485 10487 10490 10494 10496 10497 10497 10499 10503 10506 10507 10510 10511 10511 10512 10512 10512 10514 10514 10517 10520 10521 10522 10523 10525 10527 10528 10530 10531 10533 10534 10535 10536 10537 10539 10540
10441 10442 10444 10444 10441 10441 10443 10445 10447 10448 10449 10449 10450 10452 10454 10456 10456 10456 10457 10457 10457 10458 10458 10459 10460 10460 10461 10462 10464 10465 10466 10467 10469 10472 10475 10477 10478 10478 10478 10477 10475 10474 10474 10473 10472 10471 10470 10472 10475 10478 10479 10482 10486 10488 10488 10488 10489 10493 10497 10498 10500 10502 10503 10503 10502 10503 10505 10507 10509 10511 10513 10513 10514 10515 10517 10519 10520 10522 10524 10525 10526 10527 10529 10531 10532
10433 10434 10438 10439 10436 10434 10435 10437 10438 10438 10439 10439 10440 10442 10444 10446 10447 10448 10449 10450 10450 10450 10451 10452 10452 10452 10452 10453 10454 10456 10458 10459 10460 10464 10466 10468 10469 10470 10470 10469 10468 10468 10468 10466 10465 10465 10465 10466 10469 10472 10474 10477 10479 10480 10480 10479 10478 10481 10486 10488 10490 10492 10493 10493 10494 10494 10496 10498 10500 10502 10503 10503 10504 10505 10507 10509 10511 10513 10514 10515 10516 10518 10520 10521 10523
10424 10425 10429 10432 10430 10429 10429 10429 10428 10429 10431 10431 10430 10432 10435 10435 10437 10438 10440 10442 10443 10443 10444 10444 10444 10444 10443 10443 10445 10447 10449 10450 10451 10454 10456 10458 10459 10461 10461 10461 10461 10461 10461 10460 10460 10461 10461 10462 10464 10467 10469 10471 10473 10473 10472 10469 10467 10469 10474 10477 10480 10480 10481 10483 10484 10484 10485 10487 10489 10492 10493 10493 10493 10494 10497 10500 10501 10502 10504 10505 10506 10507 10509 10511 10513
10414 10414 10419 10423 10423 10425 10425 10421 10419 10421 10424 10424 10422 10424 10426 10425 10425 10428 10430 10432 10434 10435 10435 10436 10436 10435 10434 10434 10436 10438 10439 10440 10442 10444 10445 10447 10448 10450 10451 10452 10452 10453 10453 10452 10453 10453 10454 10457 10459 10462 10465 10466 10465 10465 10463 10460 10459 10460 10462 10466 10468 10468 10469 10472 10474 10473 10473 10475 10477 10480 10483 10483 10482 10483 10486 10489 10491 10492 10492 10494 10495 10496 10498 10500 10502
10405 10403 10408 10413 10416 10421 10421 10413 10409 10414 10416 10415 10414 10416 10418 10416 10415 10418 10419 10419 10421 10424 10425 10427 10427 10427 10426 10426 10427 10429 10429 10430 10432 10433 10434 10435 10436 10438 10440 10441 10442 10443 10443 10443 10443 10443 10445 10448 10452 10457 10461 10460 10457 10455 10454 10452 10451 10451 10452 10455 10456 10456 10459 10461 10461 10461 10461 10462 10465 10469 10471 10472 10472 10472 10474 10477 10479 10480 10480 10482 10484 10485 10487 10489 10491
10397 10394 10398 10402 10406 10415 10414 10403 10401 10407 10407 10405 10406 10409 10410 10407 10405 10406 10407 10407 10409 10412 10415 10416 10417 10418 10417 10417 10418 10419 10420 10420 10421 10422 10423 10424 10425 10427 10428 10429 10430 10432 10433 10433 10433 10434 10436 10439 10445 10450 10453 10451 10447 10445 10444 10443 10443 10443 10444 10445 10445 10446 10449 10450 10448 10449 10451 10451 10454 10457 10459 10460 10460 10461 10462 10465 10467 10468 10469 10470 10473 10475 10476 10478 10479
10386 10387 10391 10393 10396 10403 10404 10397 10395 10399 10398 10396 10399 10401 10399 10396 10397 10397 10396 10395 10398 10400 10402 10404 10405 10406 10407 10407 10408 10408 10409 10410 10411 10412 10413 10414 10415 10416 10417 10417 10418 10419 10421 10422 10423 10425 10426 10429 10435 10441 10441 10437 10434 10434 10434 10433 10435 10436 10435 10435 10435 10437 10439 10439 10436 10437 10440 10441 10442 10445 10447 10448 10449 10451 10453 10454 10456 10456 10457 10459 10463 10465 10465 10466 10467
10373 10378 10381 10383 10385 10388 10392 10392 10390 10388 10387 10386 10389 10391 10389 10387 10388 10388 10386 10385 10387 10388 10389 10392 10393 10393 10394 10396 10397 10396 10397 10399 10400 10401 10402 10403 10404 10406 10406 10406 10406 10406 10408 10411 10413 10415 10417 10419 10425 10429 10428 10425 10422 10421 10422 10424 10426 10427 10426 10425 10425 10426 10428 10427 10426 10427 10429 10430 10431 10432 10434 10436 10438 10440 10442 10442 10443 10443 10445 10447 10451 10453 10453 10454 10454
10363 10366 10368 10369 10372 10374 10379 10384 10383 10379 10376 10375 10376 10380 10381 10378 10377 10377 10377 10376 10376 10376 10378 10380 10380 10379 10381 10384 10385 10385 10386 10387 10388 10388 10390 10390 10391 10392 10393 10394 10394 10394 10395 10398 10401 10405 10407 10410 10415 10417 10414 10411 10409 10408 10411 10414 10415 10415 10415 10414 10414 10415 10415 10416 10417 10418 10420 10420 10420 10420 10421 10423 10425 10427 10428 10429 10429 10431 10433 10435 10438 10440 10440 10441 10441
10355 10356 10357 10356 10358 10362 10367 10372 10374 10370 10364 10361 10364 10369 10370 10368 10366 10366 10367 10367 10366 10365 10367 10368 10368 10368 10369 10371 10372 10373 10374 10374 10375 10376 10377 10378 10378 10378 10379 10380 10381 10382 10384 10387 10390 10392 10396 10401 10406 10405 10399 10396 10396 10398 10401 10403 10402 10403 10403 10402 10402 10403 10404 10407 10408 10408 10409 10409 10408 10408 10410 10411 10412 10413 10414 10415 10416 10418 10419 10421 10424 10426 10428 10428 10428
10348 10347 10346 10344 10346 10352 10357 10359 10362 10358 10351 10349 10353 10357 10358 10357 10356 10355 10356 10356 10355 10355 10355 10357 10357 10356 10357 10359 10361 10361 10361 10361 10363 10364 10364 10364 10364 10364 10365 10366 10367 10369 10371 10374 10377 10380 10385 10391 10394 10391 10388 10386 10385 10386 10388 10388 10388 10390 10390 10390 10390 10391 10393 10395 10396 10396 10396 10396 10396 10397 10399 10400 10400 10400 10399 10401 10403 10405 10406 10407 10410 10412 10414 10415 10415
10338 10335 10333 10333 10336 10341 10345 10347 10348 10346 10341 10340 10341 10343 10345 10345 10344 10344 10344 10344 10344 10344 10344 10345 10345 10345 10346 10348 10350 10351 10350 10350 10351 10351 10351 10351 10351 10351 10352 10353 10354 10356 10358 10362 10365 10367 10371 10376 10378 10378 10378 10377 10374 10373 10374 10375 10375 10377 10378 10378 10378 10379 10380 10382 10382 10383 10384 10384 10384 10386 10388 10387 10387 10387 10386 10387 10389 10391 10393 10394 10396 10397 10399 10400 10401
10328 10324 10322 10323 10325 10327 10331 10334 10335 10334 10332 10331 10329 10329 10330 10331 10332 10333 10333 10332 10332 10332 10332 10333 10333 10334 10334 10335 10337 10339 10340 10340 10340 10339 10339 10339 10339 10339 10340 10340 10343 10345 10346 10349 10352 10355 10358 10361 10364 10366 10366 10364 10362 10363 10363 10363 10364 10364 10365 10366 10366 10366 10367 10368 10369 10371 10372 10371 10371 10374 10375 10374 10373 10374 10374 10375 10376 10377 10379 10381 10382 10383 10384 10385 10386
10318 10315 10312 10311 10312 10313 10317 10320 10321 10321 10321 10319 10318 10316 10317 10318 10320 10321 10320 10320 10321 10320 10321 10321 10322 10322 10323 10323 10325 10327 10329 10329 10329 10327 10327 10327 10327 10328 10328 10329 10331 10334 10336 10337 10340 10343 10346 10349 10351 10352 10352 10350 10350 10352 10353 10352 10352 10352 10353 10354 10354 10354 10355 10356 10357 10358 10359 10359 10358 10360 10363 10362 10360 10361 10363 10363 10364 10364 10366 10368 10368 10369 10369 10370 10371
10306 10305 10303 10300 10300 10301 10303 10304 10307 10308 10308 10307 10306 10306 10306 10307 10308 10308 10308 10309 10309 10310 10310 10310 10311 10311 10312 10312 10313 10315 10316 10318 10317 10315 10315 10316 10316 10316 10316 10317 10321 10325 10325 10325 10328 10331 10334 10337 10339 10339 10338 10337 10338 10340 10341 10341 10341 10341 10341 10342 10343 10342 10343 10344 10345 10345 10346 10346 10346 10347 10349 10349 10349 10351 10352 10352 10352 10353 10353 10354 10354 10354 10355 10356 10357
10292 10293 10292 10289 10288 10289 10290 10290 10293 10295 10295 10294 10294 10294 10295 10296 10296 10296 10296 10298 10298 10299 10300 10300 10301 10301 10301 10301 10302 10303 10304 10306 10305 10302 10304 10306 10306 10306 10306 10308 10312 10315 10313 10313 10317 10320 10322 10325 10326 10326 10325 10325 10326 10328 10329 10330 10331 10331 10330 10331 10331 10330 10331 10332 10333 10333 10333 10334 10334 10334 10336 10337 10338 10341 10342 10342 10341 10341 10341 10341 10340 10340 10341 10342 10343
10278 10279 10279 10278 10277 10278 10278 10279 10281 10282 10283 10283 10282 10282 10284 10285 10285 10285 10285 10287 10288 10289 10290 10291 10291 10291 10291 10290 10290 10291 10292 10294 10293 10291 10293 10295 10296 10297 10299 10300 10302 10304 10302 10304 10307 10308 10309 10312 10314 10314 10314 10314 10315 10316 10318 10320 10321 10320 10319 10319 10319 10320 10320 10321 10322 10322 10322 10322 10322 10323 10324 10326 10329 10331 10331 10330 10329 10328 10328 10328 10328 10328 10328 10328 10329
10264 10266 10266 10265 10266 10267 10268 10269 10269 10270 10270 10271 10270 10270 10272 10274 10274 10275 10275 10276 10278 10279 10281 10282 10281 10280 10280 10279 10279 10280 10281 10282 10282 10282 10283 10286 10288 10290 10292 10292 10291 10291 10293 10295 10296 10296 10297 10301 10302 10303 10303 10303 10304 10306 10308 10308 10309 10308 10308 10309 10309 10310 10311 10311 10311 10311 10311 10311 10313 10314 10316 10318 10319 10320 10319 10317 10316 10315 10316 10317 10317 10317 10317 10317 10318
10250 10252 10252 10253 10255 10257 10257 10257 10258 10258 10258 10258 10259 10259 10261 10262 10264 10264 10264 10266 10268 10270 10271 10271 10270 10269 10269 10268 10268 10269 10269 10270 10272 10273 10275 10279 10281 10281 10282 10281 10280 10281 10284 10286 10286 10286 10287 10289 10292 10294 10294 10293 10295 10296 10297 10297 10298 10299 10300 10300 10300 10300 10301 10301 10301 10301 10302 10304 10305 10306 10307 10308 10308 10307 10306 10305 10304 10305 10305 10306 10306 10306 10307 10307 10307
10235 10237 10239 10241 10244 10246 10246 10246 10247 10246 10246 10247 10247 10249 10250 10252 10254 10254 10255 10256 10258 10259 10259 10260 10260 10260 10259 10258 10259 10259 10260 10261 10264 10267 10269 10271 10271 10270 10271 10272 10271 10272 10274 10276 10277 10277 10277 10279 10283 10284 10284 10284 10286 10287 10288 10289 10290 10291 10291 10291 10291 10291 10291 10291 10292 10293 10295 10296 10297 10297 10297 10296 10296 10295 10295 10295 10295 10296 10296 10296 10296 10296 10296 10295 10295
10224 10225 10227 10229 10232 10233 10234 10235 10236 10236 10236 10237 10238 10239 10241 10243 10244 10245 10245 10247 10249 10250 10250 10250 10251 10251 10250 10249 10250 10251 10252 10253 10257 10260 10262 10262 10259 10259 10262 10264 10263 10264 10266 10267 10267 10268 10269 10270 10273 10274 10275 10276 10278 10279 10280 10281 10282 10282 10282 10282 10282 10282 10283 10284 10285 10285 10287 10288 10288 10287 10287 10286 10286 10286 10286 10287 10287 10287 10287 10287 10287 10286 10285 10285 10284
10213 10214 10216 10219 10220 10221 10222 10224 10226 10226 10227 10228 10229 10231 10232 10233 10234 10234 10235 10237 10239 10240 10241 10241 10241 10241 10241 10241 10241 10243 10244 10246 10250 10252 10252 10251 10250 10251 10253 10254 10255 10257 10259 10258 10257 10259 10261 10262 10264 10266 10268 10269 10269 10271 10272 10273 10273 10273 10274 10274 10274 10275 10276 10277 10277 10278 10278 10278 10278 10278 10278 10278 10278 10278 10279 10279 10279 10279 10279 10278 10277 10276 10275 10274 10273
10203 10204 10206 10208 10209 10210 10212 10214 10216 10216 10217 10218 10220 10222 10223 10223 10223 10224 10225 10227 10229 10231 10232 10232 10231 10231 10232 10233 10233 10235 10237 10240 10242 10242 10241 10241 10242 10244 10245 10246 10248 10251 10251 10250 10250 10251 10253 10255 10256 10258 10260 10261 10262 10262 10263 10264 10265 10265 10265 10265 10266 10267 10268 10269 10270 10270 10270 10269 10269 10269 10270 10271 10271 10271 10272 10272 10272 10271 10270 10269 10267 10266 10264 10264 10264